"Pseudo-MPEC" for MHM11C1

Created 2024 May 17 17:22:07 UT using Find_Orb

Click here for an explanation of pseudo-MPECs

 
 Astrometry: 
     MHM11C1*KC2024 05 1269LbWM.Bg.6K.`Z+1(c$G=`hPlftTy'j8SSI;EHJ6M2v-=-i[2jRW16
     MHM11C1 KC2024 05 12LX(yVrx]j7I9qe9siOG!K.s3AstrometryR.yB`%UhwTEIR(eBs5W16
     MHM11C1 KC2024 05 125ET(CW?x](KJZY#?(WbYe-(qiGm=6)bj1ZgCT@\k*K-rD5*,nomPW16
     MHM11C1 KC2024 05 16g7wZTh=pX)*^@`tej6jwc5fmu4id);4)5*r4RM68GU(8F%![knV%W16
     MHM11C1 KC2024 05 160yCnY_fmhUQ^(@ZmjsnF!,l[-'LU7,@7OhJhTr1cIokCJLj:E_:kW16
     MHM11C1 KC2024 05 16,[S3b.%H(pwp@@J8QhFY9p+*e*i%+4f@gS(PXPXN(OIS;SAWSUK$W16
     MHM11C1 KC2024 05 16`UCExH*2hJTB-^7p)syRuSm(N%6)PnD+7C]9MI(Q#J^a$PX-I1_yW16
     MHM11C1 KC2024 05 16dS[mXqP.etmVqPpDyxvW4r*4hsAZLM*NXlmR9J$itHCrxNgLT+WBW16
     MHM11C1 KC2024 05 16MMn-BK5redacted;'ymsly3#V6LSb$-jEZyQkA$]MKZR:aQ-4w-!W16
     MHM11C1 KC2024 05 16:02*6eGosk:-jkx2JpIQu))6D4CYclick1P4%;FdQ21F_VaFG,DYW16
     MHM11C1 KC2024 05 160n(aifDY0X#Cj-XoH$YTjDT)!oOHM[fAcN1)rj:QG]u/;j1tJednW16
     MHM11C1 KC2024 05 16tnIiwqEKRflp:WyfmqIQl2F]D@a/_/]-Y'**U7lH-,Y`M[TD__kqW16
     MHM11C1 KC2024 05 16+N;i%eRL1CVpJ2-4n#GTP)bNBG?m-Gcgjh,C^X.(4$,eHhY%6h/sW16
     MHM11C1 KC2024 05 16P^oRWb9YKIm2lRjU4X3@3yB!2Hk1d+I37'vP`!0cIB0!feixx/1QW16
     MHM11C1 KC2024 05 16Q3dSXeCI40`o,jhere/bs1v]fUoTd,omJ#LhBI80YRfwiNQb9(y%W16
     MHM11C1 KB2024 05 17x!ZmVxtmgfJ9TlF#vS]b*Lj[i]=hbDB/T@]pgK\8j^57;1DxMNKqY66
     MHM11C1 KB2024 05 17cnT'\CZ^,4Xj*Eo@7g1Pk3j`NoWkcery'oZ?HwFSw;sh\^_`0L`gY66
     MHM11C1 KB2024 05 17hoxZ2d,1kE1Xn.$!_stNU3lnsA4V.V%for,j7pQ#-HMep5CqOpF#Y66
     MHM11C1 KB2024 05 17%Yot,Lot(W+b=uyhLV*YY1xOu!OkGRKZy@(n;d%FLBud\H5;YhE4Y66
     MHM11C1 KB2024 05 17cFc/GexplanationpZ'LYGT'r,E(lKmn-;]#OKHcinx;v2vEwVL:Y66

Station data:
(W16) Pleasant Groves Observatory  (N34.711888 W86.231310)  US/Alabama.
   Observer M. Holbrook. 0.36-m reflector + CCD.
(Y66) Two-Meter Twin Telescope, TTT2, Teide  (N28.298728 W16.509470)  Canary
   Islands (Spain).

Orbital elements:  MHM11C1
   Perihelion 2024 Apr 30.66602 +/- 0.115 TT = 15:59:04 (JD 2460431.16602)
Epoch 2024 May 17.0 TT = JDT 2460447.5   Earth MOID: 0.3470   Ju: 0.4911
M   3.14041581 +/- 0.13             (J2000 ecliptic)             AutoNEOCP
n   0.19226276 +/- 0.00908          Peri.   21.92889 +/- 0.14
a   2.97307540 +/- 0.0936           Node   217.26007 +/- 0.23
e   0.5473876 +/- 0.0127            Incl.   14.36007 +/- 0.15
P   5.13                   H 18.98  G  0.15   U  9.6
q 1.34565072 +/- 0.00464    Q 4.60050007 +/- 0.183
From 20 observations 2024 May 12-17; mean residual 0".36
Residuals in arcseconds: 
240512 W16  .47-  .97+    240516 W16  .19-  .17-    240516 W16  .25-  .29-    
240512 W16  .24-  .38-    240516 W16  .24+  .12+    240517 Y66  1.2+  .10-    
240512 W16  .70+  .59-    240516 W16  .07+  .02+    240517 Y66  .11-  .18-    
240516 W16  .19-  .07+    240516 W16  .04+  .11+    240517 Y66  .48-  .27+    
240516 W16  .01-  .17-    240516 W16  .28+  .16-    240517 Y66  .27-  .01-    
240516 W16  .26+  .08+    240516 W16  .20-  .07+    240517 Y66  .35-  .04+    
240516 W16  .32-  .33+    240516 W16  .33+  .08-    

Ephemerides (geocentric):
Date (UTC) HH   RA             Dec           delta  r     elong  mag " sig PA
---- --------  ------------   ------------  ------ ------ -----  --- --------
2024 05 17 17  19 00 57.143   +00 55 22.32  .48757 1.3585 126.4 19.6 .482 132
2024 05 17 18  19 01 00.357   +00 56 46.12  .48756 1.3586 126.4 19.6 .502 131
2024 05 17 19  19 01 03.565   +00 58 09.87  .48754 1.3587 126.4 19.6 .522 131
2024 05 17 20  19 01 06.767   +00 59 33.58  .48753 1.3587 126.4 19.6 .542 130
2024 05 17 21  19 01 09.964   +01 00 57.26  .48752 1.3588 126.4 19.6 .562 130
2024 05 17 22  19 01 13.154   +01 02 20.89  .48750 1.3589 126.4 19.6 .583 129
2024 05 17 23  19 01 16.339   +01 03 44.49  .48749 1.3589 126.5 19.6 .604 129
2024 05 18 00  19 01 19.518   +01 05 08.05  .48748 1.3590 126.5 19.6 .626 129
2024 05 18 01  19 01 22.691   +01 06 31.57  .48747 1.3590 126.5 19.6 .647 128
2024 05 18 02  19 01 25.859   +01 07 55.05  .48745 1.3591 126.5 19.6 .669 128
2024 05 18 03  19 01 29.021   +01 09 18.49  .48744 1.3592 126.5 19.6 .691 128
2024 05 18 04  19 01 32.177   +01 10 41.89  .48743 1.3592 126.5 19.6 .714 127
2024 05 18 05  19 01 35.327   +01 12 05.25  .48742 1.3593 126.5 19.6 .737 127
2024 05 18 06  19 01 38.472   +01 13 28.57  .48741 1.3594 126.5 19.6 .760 127
2024 05 18 07  19 01 41.610   +01 14 51.86  .48740 1.3594 126.6 19.6 .783 127
2024 05 18 08  19 01 44.743   +01 16 15.10  .48738 1.3595 126.6 19.6 .807 126
2024 05 18 09  19 01 47.870   +01 17 38.30  .48737 1.3596 126.6 19.6 .831 126
2024 05 18 10  19 01 50.992   +01 19 01.46  .48736 1.3596 126.6 19.6 .855 126
2024 05 18 11  19 01 54.108   +01 20 24.58  .48735 1.3597 126.6 19.6 .880 126
2024 05 18 12  19 01 57.218   +01 21 47.66  .48734 1.3598 126.6 19.6 .904 125
2024 05 18 13  19 02 00.322   +01 23 10.70  .48733 1.3598 126.6 19.6 .930 125
2024 05 18 14  19 02 03.420   +01 24 33.70  .48732 1.3599 126.6 19.6 .955 125
2024 05 18 15  19 02 06.513   +01 25 56.66  .48731 1.3600 126.7 19.6 .981 125
2024 05 18 16  19 02 09.600   +01 27 19.58  .48730 1.3600 126.7 19.6 1.01 125
2024 05 18 17  19 02 12.681   +01 28 42.45  .48729 1.3601 126.7 19.6 1.03 125
2024 05 18 18  19 02 15.756   +01 30 05.29  .48728 1.3601 126.7 19.6 1.06 124
2024 05 18 19  19 02 18.826   +01 31 28.08  .48728 1.3602 126.7 19.6 1.09 124
2024 05 18 20  19 02 21.890   +01 32 50.83  .48727 1.3603 126.7 19.6 1.11 124
2024 05 18 21  19 02 24.948   +01 34 13.54  .48726 1.3603 126.7 19.6 1.14 124
2024 05 18 22  19 02 28.000   +01 35 36.21  .48725 1.3604 126.8 19.6 1.17 124
2024 05 18 23  19 02 31.047   +01 36 58.84  .48724 1.3605 126.8 19.6 1.20 124
2024 05 19 00  19 02 34.088   +01 38 21.43  .48723 1.3605 126.8 19.6 1.22 123
2024 05 19 01  19 02 37.123   +01 39 43.97  .48722 1.3606 126.8 19.6 1.25 123
2024 05 19 02  19 02 40.152   +01 41 06.47  .48722 1.3607 126.8 19.6 1.28 123
2024 05 19 03  19 02 43.176   +01 42 28.93  .48721 1.3608 126.8 19.6 1.31 123
2024 05 19 04  19 02 46.194   +01 43 51.35  .48720 1.3608 126.8 19.6 1.34 123
2024 05 19 05  19 02 49.206   +01 45 13.72  .48719 1.3609 126.8 19.6 1.37 123
2024 05 19 06  19 02 52.212   +01 46 36.05  .48719 1.3610 126.9 19.6 1.40 123
2024 05 19 07  19 02 55.213   +01 47 58.34  .48718 1.3610 126.9 19.6 1.43 123
2024 05 19 08  19 02 58.208   +01 49 20.59  .48717 1.3611 126.9 19.6 1.46 122
2024 05 19 09  19 03 01.197   +01 50 42.79  .48717 1.3612 126.9 19.6 1.49 122
2024 05 19 10  19 03 04.181   +01 52 04.95  .48716 1.3612 126.9 19.6 1.52 122
2024 05 19 11  19 03 07.158   +01 53 27.07  .48716 1.3613 126.9 19.6 1.55 122
2024 05 19 12  19 03 10.130   +01 54 49.15  .48715 1.3614 126.9 19.6 1.58 122
2024 05 19 13  19 03 13.096   +01 56 11.18  .48714 1.3614 126.9 19.6 1.62 122
2024 05 19 14  19 03 16.057   +01 57 33.16  .48714 1.3615 127.0 19.6 1.65 122
2024 05 19 15  19 03 19.012   +01 58 55.11  .48713 1.3616 127.0 19.6 1.68 122
2024 05 19 16  19 03 21.961   +02 00 17.01  .48713 1.3616 127.0 19.6 1.71 122